105P/Singer Brewster (2018)

Japanese version
Home page
Updated on October 8, 2017

---------------------------------------------------------------------

* Profile

* Orbital Elements

Epoch 2018 Aug. 30.0 TT = JDT 2458360.5
T 2018 Aug. 10.31735 TT                                 Kobayashi
q   2.0445293            (2000.0)            P               Q
n   0.15259501     Peri.   46.47471     -0.51846841     +0.85440778
a   3.4682402      Node   192.42942     -0.82332041     -0.50963896
e   0.4104995      Incl.    9.17504     -0.23094155     -0.10126928
P   6.46
From 302 observations 1986 May 3-2012 Nov. 6, mean residual 0".7.
     Nongravitational parameters A1 = +0.32, A2 = -0.0661.

* Magnitudes Graph

        m1 = 16.5 + 5 log d + 5.0 log r

---------------------------------------------------------------------

The orbital elements are published on M.P.E.C. 2015-M77.
The magnitudes graphs are made with Comet for Windows.

---------------------------------------------------------------------

Copyright(C) Seiichi Yoshida (comet@aerith.net). All rights reserved.